Temp
27 27 27 27 25 24 25 25 25 24 24 24 25 24 25 24 22 16 19 20 23 23 25 26 24 23 22 24 25 24 23 27 29 25 24 23 23 27 33 35 36 36 37 38 38 39 40 41 41 41 42 42 42 43 43 43 43 43 43 43 44 44 44 44 44 44 44 45 45 45 44 44 45 45
26 26 25 25 25 24 24 24 24 24 24 24 24 23 23 25 25 22 21 20 23 21 22 25 23 21 22 24 24 25 23 28 28 24 23 23 23 30 32 33 34 35 36 37 37 38 40 40 40 40 41 41 42 42 42 42 43 43 43 43 43 44 44 44 43 43 43 44 43 43 43 44 45 45
26 26 25 24 24 24 24 23 23 24 24 24 23 22 23 24 24 23 22 18 21 26 26 23 23 22 21 23 22 24 24 26 27 24 23 23 27 30 28 30 32 34 35 35 37 38 39 40 40 40 40 41 41 41 41 41 42 41 41 42 42 42 43 43 42 43 42 43 43 43 43 44 43 44
26 25 25 25 24 23 23 23 23 23 23 23 23 23 23 23 23 23 23 22 24 24 23 22 22 21 21 22 21 21 23 25 27 23 23 24 28 25 23 28 30 32 34 35 37 38 39 39 39 39 39 39 40 40 40 41 41 40 40 41 42 42 41 41 41 41 41 41 41 42 42 42 42 43
25 24 24 23 23 23 24 23 23 23 22 22 23 22 23 23 22 22 22 20 21 22 23 23 22 20 22 19 22 21 21 21 22 25 23 23 23 23 23 23 27 31 33 34 36 37 38 38 38 38 38 38 39 39 39 39 39 39 40 39 40 40 40 40 39 40 40 40 41 41 41 41 42 43
25 24 23 22 21 21 23 22 23 22 21 22 21 21 22 21 21 23 22 21 19 18 21 21 22 20 22 18 22 21 20 21 22 21 22 23 23 23 23 23 24 30 32 34 36 36 37 37 37 37 36 36 36 38 38 38 38 38 38 38 38 38 38 39 39 39 39 40 40 40 40 41 42 41
23 22 22 21 21 21 20 20 22 22 21 22 22 21 22 21 21 21 22 19 16 17 17 20 19 19 19 19 19 21 21 22 22 21 22 23 24 25 24 23 24 29 32 34 35 35 35 35 36 35 35 35 35 36 37 37 37 37 37 37 37 36 37 38 38 38 38 39 40 40 40 40 42 43
23 24 22 21 20 20 20 19 19 20 20 20 20 21 21 21 21 21 21 22 20 14 15 15 18 19 19 18 21 22 22 21 21 22 22 23 23 23 24 24 24 27 32 33 33 34 34 34 33 34 34 34 34 35 35 36 36 36 36 35 35 36 36 37 36 37 37 39 40 40 41 41 39 40
25 25 24 22 20 20 21 19 18 19 18 19 19 19 19 19 20 20 20 19 20 16 16 16 17 19 18 20 20 21 19 20 22 22 21 22 22 22 23 24 26 30 32 31 31 31 32 32 32 32 32 33 33 34 34 35 35 35 34 34 34 35 36 36 36 36 37 37 37 37 38 40 41 40
26 25 24 22 21 20 21 21 19 18 18 18 18 18 18 18 18 18 18 19 17 17 15 15 13 16 17 15 19 20 20 19 19 20 21 22 21 21 23 24 26 27 26 25 26 28 28 29 30 30 31 32 32 33 33 33 33 32 32 33 33 34 35 35 35 36 36 36 36 37 37 37 39 40
25 25 24 22 21 21 21 21 20 19 18 19 18 18 18 17 17 16 16 16 16 16 15 14 15 15 16 17 15 18 21 20 20 18 19 19 22 23 23 23 25 25 25 27 28 27 27 28 26 28 29 30 30 31 32 31 31 30 30 32 33 34 34 35 35 35 35 35 35 36 36 37 37 38
24 25 24 22 22 22 22 22 21 20 19 19 18 18 17 17 16 16 15 14 15 14 14 14 14 14 14 14 17 19 18 17 17 21 19 17 19 20 23 23 22 24 23 21 22 24 25 24 24 26 26 27 29 29 29 28 28 28 30 32 33 33 33 34 34 34 34 34 34 34 35 35 35 37
24 24 23 23 21 22 24 26 25 24 24 19 17 17 17 16 16 15 13 13 13 12 13 13 15 14 14 15 15 16 16 16 17 19 20 18 20 21 21 22 22 22 20 20 20 20 21 20 20 20 20 22 25 25 27 26 26 28 31 32 32 33 33 33 33 33 33 34 34 34 35 35 35 35
23 23 23 22 25 25 26 27 29 29 29 28 23 19 17 16 15 12 9 11 11 12 11 12 12 12 13 14 16 16 17 20 22 20 19 17 20 21 20 21 21 20 19 18 16 18 21 19 19 20 19 21 22 21 21 21 25 28 30 31 32 32 32 33 33 33 33 33 33 34 34 34 34 35
24 23 23 21 23 25 26 26 29 30 31 30 30 28 26 23 18 12 11 11 12 10 10 11 11 12 13 15 17 18 18 20 21 21 21 19 20 19 16 13 18 21 18 16 14 14 19 19 16 17 18 19 20 21 20 26 28 29 30 31 31 32 32 32 32 32 32 32 32 33 33 33 34 34
24 23 22 22 22 22 22 22 24 28 31 31 31 31 30 28 28 25 18 14 9 9 9 10 12 14 14 16 18 18 19 20 22 22 21 20 20 18 17 16 14 19 19 14 13 13 18 19 16 15 17 19 20 20 24 27 27 29 30 30 31 31 31 32 32 32 32 32 32 32 32 33 33 34
24 23 22 22 22 21 24 24 22 22 23 28 32 31 31 31 30 30 29 27 20 15 13 13 13 16 17 17 19 21 21 25 22 22 20 21 20 20 17 17 16 17 18 14 12 11 15 16 13 13 16 18 19 20 23 25 28 29 29 30 30 31 31 31 31 31 31 31 31 32 32 32 32 33
24 23 22 22 22 22 21 22 22 21 20 20 21 23 24 25 28 31 31 30 29 25 20 18 16 20 22 19 21 22 24 22 20 20 19 20 18 17 16 18 16 17 17 12 11 8 12 13 12 12 15 18 18 18 22 26 26 28 28 29 29 30 30 30 30 30 30 30 31 31 31 31 31 32
24 23 23 23 23 22 20 20 22 20 20 18 18 18 18 19 19 19 22 25 26 27 25 24 22 22 24 23 23 23 24 24 24 24 20 19 18 16 15 12 12 13 16 15 11 2 12 13 11 12 14 16 16 17 21 24 25 26 27 28 29 29 29 29 29 29 29 30 30 30 30 30 31 31
24 23 22 22 21 21 20 22 26 25 20 16 14 14 15 16 16 17 22 25 26 24 23 23 23 22 23 26 25 25 25 25 24 19 15 15 11 8 6 6 5 6 12 15 11 4 6 11 10 11 14 14 13 16 16 21 24 25 26 27 27 28 28 28 28 29 29 29 29 30 30 30 30 31
23 22 22 21 21 20 19 23 26 28 27 16 13 13 12 13 12 14 18 24 28 29 30 30 30 30 30 30 31 31 32 29 22 14 11 10 3 1 4 6 3 3 9 11 12 8 4 9 8 9 11 12 12 13 14 16 21 23 25 25 25 26 27 28 28 28 28 28 28 29 29 29 30 29
22 22 23 22 20 20 20 24 27 28 27 19 15 13 13 12 11 13 16 17 20 26 29 30 30 30 31 31 32 32 32 29 25 11 12 6 1 4 2 2 4 4 5 9 12 2 3 7 10 8 10 11 9 11 13 16 18 21 21 22 24 24 25 27 27 27 27 27 27 28 28 29 29 26
21 20 22 24 23 22 22 26 27 28 27 22 19 15 13 13 13 15 16 15 15 17 19 21 25 26 29 29 26 23 26 25 23 19 14 8 5 5 4 3 1 2 -0 8 13 3 3 7 10 8 4 4 9 11 11 12 14 16 16 17 18 22 24 25 25 25 26 26 27 27 28 28 28 25
21 20 19 22 26 28 28 28 28 28 29 24 21 19 15 14 15 19 16 17 17 16 18 18 20 22 24 22 19 19 18 18 17 17 16 13 9 5 5 3 3 2 3 10 16 7 7 9 7 10 6 2 1 8 11 12 13 14 15 15 15 19 21 21 21 22 24 25 25 26 27 27 27 25
21 21 21 19 23 27 29 30 30 30 30 29 25 22 19 19 21 20 15 18 23 18 17 18 19 20 20 18 17 17 17 15 15 16 17 15 14 9 5 4 3 3 6 11 16 9 5 5 5 7 6 7 6 6 9 11 12 12 14 15 14 16 16 16 17 17 20 22 23 25 25 27 28 27
21 21 21 19 21 26 27 28 29 31 31 32 28 26 28 28 28 25 21 17 18 18 18 18 17 17 16 15 14 13 13 14 13 13 13 15 14 14 11 7 3 2 3 11 16 10 4 4 6 4 5 4 4 6 5 7 10 12 13 14 14 15 15 14 14 15 16 17 17 20 23 26 27 28
24 22 20 20 24 26 27 28 29 30 31 31 29 32 32 32 32 30 25 22 19 18 18 18 17 17 15 13 13 12 12 13 12 11 12 12 13 12 13 13 12 9 10 12 13 10 7 5 8 5 4 5 3 4 5 4 6 10 11 12 12 13 14 14 13 13 15 16 17 22 23 24 25 26
24 23 21 20 25 27 28 29 29 30 30 29 30 31 32 33 32 30 27 24 22 19 18 16 16 15 15 13 13 12 13 13 12 11 10 11 11 11 10 11 10 11 11 12 11 11 8 6 6 7 6 4 2 2 1 7 8 8 7 10 11 11 12 13 12 13 15 16 16 18 18 18 20 20
25 27 29 29 29 28 29 29 30 30 30 31 31 31 31 30 29 28 27 25 20 17 16 15 15 15 15 15 15 15 14 11 10 8 9 9 9 8 8 6 7 8 9 9 9 10 9 7 5 6 5 5 3 4 5 4 6 6 7 6 4 8 10 12 12 13 13 15 16 18 18 18 19 20
31 32 32 32 32 31 30 28 26 26 26 28 29 30 30 28 27 27 26 23 18 17 17 16 15 16 15 14 15 12 11 9 7 7 5 4 3 3 2 0 1 3 5 7 8 9 10 9 8 6 4 4 5 4 5 4 3 6 7 5 5 8 9 11 12 12 13 14 16 17 18 19 19 19
25 26 26 26 28 28 30 30 29 28 28 26 26 26 26 25 25 25 24 22 20 18 18 17 17 16 14 11 9 8 8 6 7 7 5 4 3 3 3 1 -0 1 5 6 8 10 10 10 9 9 3 3 5 5 6 6 3 3 4 5 5 1 6 10 11 11 13 15 16 16 17 18 19 20
19 20 22 23 22 22 22 24 25 25 25 24 23 23 23 23 23 23 25 23 19 18 18 16 12 7 7 6 7 7 6 6 5 6 4 3 2 2 1 -1 -0 0 2 4 5 7 8 9 8 8 7 5 2 4 6 4 3 2 2 4 5 6 7 7 9 11 14 15 13 13 15 16 17 19
17 17 17 18 19 19 20 21 21 22 22 22 22 21 21 21 21 20 18 17 18 17 13 12 11 10 7 7 6 5 4 4 3 5 3 3 1 1 1 -0 0 -1 -1 1 3 5 6 6 7 8 7 6 6 5 2 -0 1 1 0 2 3 4 6 9 10 11 14 12 11 12 12 16 18 19
17 15 15 15 16 17 18 18 20 20 21 20 20 20 21 20 19 18 17 17 18 16 13 13 11 10 8 7 5 4 4 5 4 4 5 1 2 -0 0 -1 -0 -1 -1 -1 1 2 2 3 4 4 3 3 4 4 3 1 0 1 2 2 3 3 6 8 10 11 12 11 11 10 11 13 16 18
20 18 17 17 17 18 18 18 19 20 20 19 18 18 17 16 16 16 15 15 14 13 12 11 10 9 8 7 7 5 5 4 3 2 4 3 1 0 -0 -2 -3 -2 -2 -2 -1 1 1 1 0 -1 -0 -1 -0 1 8 7 0 1 -1 2 4 4 5 7 8 9 11 11 12 10 10 12 13 17
22 21 18 18 18 19 18 18 19 18 18 19 19 18 16 15 14 13 14 15 14 13 11 10 9 8 7 7 7 6 5 3 2 1 1 0 -1 -1 -2 -3 -3 -3 -3 -3 -1 0 -0 -0 -2 -3 -4 -3 -4 -5 -3 11 11 2 1 1 3 3 5 7 8 10 10 10 12 11 8 8 10 14
21 21 19 18 18 19 18 18 18 18 18 18 18 18 17 17 16 15 15 17 14 12 12 11 10 9 7 6 5 4 3 2 1 1 -0 1 0 -1 -2 -2 -1 -2 -3 -2 -1 0 -1 -3 -4 -4 -5 -5 -6 -7 -4 0 8 13 6 1 3 4 5 6 7 7 10 11 11 11 10 10 10 13
17 17 16 15 14 14 14 14 14 14 14 15 15 16 16 17 17 17 16 13 13 12 12 11 10 8 7 6 5 4 3 2 1 -0 -0 -1 -2 -2 -2 -2 -3 -3 -3 -2 -1 0 1 -1 -4 -4 -6 -6 -6 -6 -6 0 1 3 11 8 4 5 7 7 6 6 8 11 10 11 12 10 11 13
13 12 12 11 11 11 10 11 11 10 10 11 11 11 11 12 13 14 13 12 11 11 10 9 9 8 7 6 5 4 3 1 -1 -2 -2 -2 -1 -2 -2 -2 -3 -4 -4 -3 -1 -1 -1 -3 -3 -5 -6 -6 -5 -3 -1 -2 -1 3 7 12 8 6 7 8 7 8 8 8 10 12 12 14 17 20
10 10 9 8 8 9 8 9 8 9 8 8 8 9 9 9 9 10 10 10 9 9 8 7 7 7 5 5 3 3 2 1 -0 -1 -1 -2 -2 -1 -2 -2 -3 -3 -4 -3 -3 -2 -2 -1 -2 -4 -4 -2 1 3 3 2 2 3 3 7 13 11 9 9 8 7 7 9 10 8 8 11 10 14
5 5 5 6 5 6 5 5 5 5 5 6 6 7 7 7 6 6 7 9 8 7 6 6 5 4 4 3 2 1 -1 -1 -2 -2 -2 -2 -1 -1 -1 -0 -2 -1 -3 -4 -4 -4 -3 -1 2 6 4 1 0 -1 -3 -4 -4 -2 1 4 10 14 15 15 10 9 7 9 9 8 7 8 9 11
-3 -3 0 1 1 1 1 -0 0 0 0 0 0 1 1 3 3 6 6 6 5 5 5 3 2 2 2 2 1 1 -0 -1 -3 -4 -3 -3 -4 -2 -1 -1 -4 -4 -5 -6 -6 -5 -2 -1 -0 -1 -5 -7 -7 -5 -5 -4 -4 -3 -1 2 4 10 13 14 15 15 12 10 8 7 8 9 11 8
-7 -10 -10 -8 -7 -8 -9 -8 -9 -9 -9 -8 -7 -4 -2 -1 0 -0 -2 -2 -1 0 0 0 -0 -0 0 -0 -1 -1 -3 -4 -5 -5 -5 -5 -5 -6 -6 -5 -5 -6 -6 -7 -7 -7 -6 -4 -5 -6 -8 -10 -7 -4 -4 -3 -2 -2 -1 -1 1 3 5 10 12 14 15 15 15 13 12 10 7 5
-15 -14 -17 -16 -17 -15 -15 -13 -12 -11 -10 -11 -8 -7 -4 -3 -3 -3 -5 -5 -4 -3 -2 -2 -2 -1 -1 -2 -3 -4 -4 -4 -5 -5 -6 -6 -6 -7 -7 -6 -5 -6 -8 -8 -9 -9 -10 -9 -7 -7 -10 -9 -8 -6 -4 -2 -3 -2 -2 -1 -0 -1 -0 2 4 8 9 10 13 16 18 18 17 17
-17 -19 -19 -20 -18 -19 -17 -16 -15 -13 -13 -12 -12 -10 -6 -6 -6 -7 -8 -9 -8 -7 -7 -6 -5 -4 -4 -4 -5 -5 -5 -2 -2 -5 -7 -7 -7 -6 -5 -5 -6 -8 -9 -9 -11 -10 -12 -11 -9 -10 -10 -8 -8 -6 -3 -2 -3 -2 -3 -3 -4 -2 -2 -1 -1 -1 -0 1 8 15 16 17 17 17
MSLP
1032.16 1032.32 1032.32 1032.36 1032.82 1033.06 1033.26 1033.34 1033.40 1033.52 1033.64 1033.64 1033.76 1033.78 1033.60 1033.66 1033.78 1033.72 1033.86 1033.80 1033.94 1034.12 1034.78 1034.16 1034.66 1035.10 1035.22 1035.34 1035.42 1035.44 1035.54 1035.56 1035.44 1035.52 1035.56 1035.52 1035.42 1035.10 1034.60 1034.16 1033.76 1033.44 1033.10 1032.76 1032.42 1032.00 1031.54 1031.14 1030.80 1030.50 1030.18 1029.86 1029.48 1029.08 1028.74 1028.36 1028.00 1027.54 1027.26 1026.86 1026.44 1026.00 1025.54 1025.10 1024.66 1024.28 1023.80 1023.36 1022.96 1022.56 1022.28 1021.94 1021.56 1021.24
1032.66 1032.88 1033.04 1033.10 1033.14 1033.46 1033.28 1033.32 1033.50 1033.50 1033.58 1033.76 1033.92 1034.18 1034.42 1034.30 1033.84 1033.86 1033.94 1033.62 1034.14 1033.68 1034.52 1034.56 1034.28 1034.94 1035.10 1035.28 1035.32 1035.40 1035.50 1035.46 1035.44 1035.48 1035.48 1035.44 1035.32 1034.92 1034.60 1034.26 1033.88 1033.50 1033.10 1032.78 1032.40 1031.94 1031.46 1031.12 1030.80 1030.50 1030.18 1029.84 1029.46 1029.10 1028.74 1028.36 1027.90 1027.36 1027.08 1026.72 1026.30 1025.78 1025.30 1024.96 1024.56 1024.18 1023.78 1023.36 1022.94 1022.50 1022.16 1021.78 1021.36 1021.00
1033.08 1033.18 1033.20 1033.44 1033.48 1033.60 1033.44 1033.56 1033.60 1033.66 1033.74 1033.94 1034.22 1034.50 1034.72 1034.80 1034.80 1034.94 1034.94 1034.74 1033.88 1034.38 1033.54 1034.42 1035.08 1034.92 1035.08 1035.28 1035.38 1035.40 1035.42 1035.42 1035.40 1035.42 1035.38 1035.30 1035.06 1034.80 1034.62 1034.30 1033.88 1033.50 1033.12 1032.76 1032.34 1031.84 1031.42 1031.04 1030.74 1030.48 1030.18 1029.84 1029.48 1029.10 1028.72 1028.32 1027.86 1027.42 1027.04 1026.62 1026.06 1025.70 1025.22 1024.80 1024.44 1024.02 1023.64 1023.30 1022.92 1022.48 1022.02 1021.60 1021.24 1020.88
1033.28 1033.40 1033.38 1033.52 1033.56 1033.66 1033.60 1033.60 1033.66 1033.74 1033.98 1034.22 1034.46 1034.64 1034.74 1034.90 1035.16 1035.34 1035.44 1035.08 1034.00 1034.42 1034.38 1034.36 1034.82 1035.16 1035.24 1035.30 1035.26 1035.32 1035.38 1035.38 1035.36 1035.32 1035.24 1035.06 1034.84 1034.74 1034.54 1034.18 1033.80 1033.40 1033.04 1032.68 1032.22 1031.78 1031.40 1031.06 1030.74 1030.46 1030.20 1029.88 1029.48 1029.08 1028.70 1028.26 1027.86 1027.42 1026.92 1026.42 1025.96 1025.54 1025.18 1024.78 1024.34 1023.94 1023.60 1023.22 1022.92 1022.52 1021.94 1021.48 1021.14 1020.80
1033.12 1033.42 1033.54 1033.68 1033.78 1033.74 1033.44 1033.60 1033.70 1033.84 1034.14 1034.52 1034.70 1034.88 1034.86 1034.90 1035.20 1035.32 1035.50 1035.30 1034.96 1034.88 1034.72 1034.78 1034.78 1035.14 1035.30 1035.26 1035.20 1035.28 1035.28 1035.30 1035.22 1035.12 1035.04 1034.88 1034.72 1034.52 1034.30 1034.00 1033.64 1033.30 1032.92 1032.54 1032.10 1031.70 1031.36 1031.04 1030.76 1030.48 1030.20 1029.86 1029.40 1029.02 1028.58 1028.20 1027.80 1027.34 1026.86 1026.46 1026.04 1025.60 1025.22 1024.78 1024.36 1023.92 1023.48 1023.14 1022.74 1022.30 1021.84 1021.42 1020.94 1020.46
1032.90 1033.34 1033.54 1033.74 1033.88 1033.78 1033.44 1033.54 1033.62 1033.88 1034.28 1034.54 1034.80 1034.92 1034.88 1034.86 1035.06 1035.30 1035.38 1035.52 1035.20 1034.58 1034.78 1034.66 1034.92 1035.18 1035.28 1035.46 1035.14 1035.18 1035.14 1035.06 1034.96 1034.88 1034.76 1034.60 1034.42 1034.24 1034.00 1033.78 1033.48 1033.12 1032.74 1032.38 1031.94 1031.62 1031.32 1031.02 1030.74 1030.48 1030.20 1029.84 1029.48 1029.04 1028.54 1028.14 1027.76 1027.34 1026.90 1026.46 1026.12 1025.74 1025.30 1024.80 1024.28 1023.80 1023.40 1022.94 1022.52 1022.06 1021.66 1021.18 1020.66 1020.28
1032.78 1033.14 1033.46 1033.68 1033.90 1033.82 1033.46 1033.56 1033.72 1034.08 1034.28 1034.58 1034.64 1034.78 1034.96 1034.88 1035.04 1035.28 1035.36 1035.36 1034.94 1034.62 1034.82 1034.94 1035.12 1035.18 1035.38 1035.32 1035.18 1035.12 1035.04 1034.84 1034.74 1034.60 1034.42 1034.22 1034.08 1033.90 1033.70 1033.54 1033.24 1032.88 1032.54 1032.16 1031.90 1031.62 1031.28 1031.02 1030.76 1030.54 1030.20 1029.80 1029.42 1028.92 1028.48 1028.10 1027.74 1027.32 1026.92 1026.56 1026.22 1025.86 1025.32 1024.70 1024.12 1023.64 1023.24 1022.80 1022.26 1021.80 1021.34 1020.98 1020.40 1019.96
1032.64 1032.82 1033.26 1033.60 1033.74 1033.64 1033.38 1033.64 1033.80 1034.16 1034.32 1034.50 1034.62 1034.68 1034.90 1034.94 1035.06 1035.28 1035.44 1035.26 1035.02 1035.10 1034.98 1035.02 1034.98 1035.22 1035.28 1035.30 1035.10 1034.98 1034.80 1034.62 1034.44 1034.24 1033.96 1033.84 1033.72 1033.54 1033.44 1033.28 1032.98 1032.66 1032.30 1032.06 1031.90 1031.58 1031.28 1031.02 1030.82 1030.56 1030.20 1029.80 1029.36 1028.88 1028.44 1028.06 1027.68 1027.30 1026.92 1026.60 1026.24 1025.76 1025.18 1024.58 1024.18 1023.70 1023.12 1022.50 1022.02 1021.52 1020.94 1020.52 1020.26 1019.80
1032.42 1032.76 1032.86 1033.24 1033.52 1033.46 1033.30 1033.70 1033.84 1034.10 1034.12 1034.40 1034.58 1034.60 1034.82 1034.96 1035.12 1035.32 1035.36 1035.34 1035.28 1035.34 1035.22 1035.24 1035.06 1035.08 1035.24 1035.04 1034.92 1034.76 1034.60 1034.26 1034.00 1033.80 1033.62 1033.46 1033.30 1033.22 1033.14 1032.96 1032.68 1032.34 1032.14 1032.02 1031.86 1031.60 1031.22 1031.02 1030.82 1030.52 1030.18 1029.76 1029.32 1028.82 1028.38 1028.02 1027.68 1027.32 1026.96 1026.60 1026.16 1025.62 1025.06 1024.48 1024.00 1023.52 1023.02 1022.46 1021.96 1021.40 1020.94 1020.38 1019.82 1019.44
1032.36 1032.52 1032.74 1033.06 1033.24 1033.24 1033.02 1033.24 1033.66 1033.94 1033.92 1034.28 1034.42 1034.56 1034.78 1034.96 1035.14 1035.16 1035.24 1035.28 1035.32 1035.32 1035.32 1035.38 1035.44 1035.12 1035.00 1034.98 1034.70 1034.46 1034.48 1034.20 1033.70 1033.28 1033.18 1033.04 1032.94 1032.94 1032.78 1032.60 1032.38 1032.12 1032.00 1031.94 1031.70 1031.42 1031.22 1031.00 1030.82 1030.62 1030.20 1029.78 1029.32 1028.76 1028.30 1028.02 1027.74 1027.40 1027.00 1026.54 1026.04 1025.50 1024.96 1024.44 1023.90 1023.34 1022.82 1022.32 1021.84 1021.26 1020.68 1020.24 1019.74 1019.26
1032.38 1032.50 1032.62 1032.82 1033.04 1032.96 1032.92 1033.00 1033.26 1033.56 1033.82 1034.00 1034.08 1034.32 1034.58 1034.86 1034.96 1035.04 1035.12 1035.22 1035.26 1035.28 1035.28 1035.32 1035.20 1035.08 1034.90 1034.68 1034.66 1034.40 1034.26 1034.10 1033.88 1033.48 1032.86 1032.48 1032.62 1032.78 1032.58 1032.16 1031.92 1031.90 1031.82 1031.78 1031.70 1031.38 1031.00 1030.78 1030.68 1030.46 1030.12 1029.74 1029.32 1028.74 1028.30 1028.08 1027.82 1027.46 1027.02 1026.48 1025.90 1025.36 1024.78 1024.26 1023.80 1023.32 1022.80 1022.26 1021.74 1021.22 1020.70 1020.18 1019.60 1019.12
1032.30 1032.40 1032.48 1032.62 1032.78 1032.78 1032.78 1032.76 1033.00 1033.26 1033.32 1033.76 1033.90 1034.22 1034.50 1034.64 1034.76 1034.84 1035.00 1035.12 1035.14 1035.16 1035.22 1035.04 1034.96 1035.00 1034.74 1034.74 1034.50 1034.18 1034.00 1033.82 1033.50 1033.10 1033.16 1033.10 1032.40 1032.18 1032.26 1032.22 1031.94 1031.44 1031.48 1031.58 1031.54 1031.26 1030.88 1030.72 1030.62 1030.36 1030.12 1029.78 1029.26 1028.76 1028.34 1028.02 1027.80 1027.46 1026.88 1026.28 1025.74 1025.20 1024.66 1024.20 1023.74 1023.24 1022.68 1022.12 1021.58 1021.06 1020.58 1020.10 1019.64 1019.16
1032.30 1032.38 1032.42 1032.50 1032.66 1032.76 1032.70 1032.66 1032.70 1032.84 1032.92 1033.24 1033.48 1033.86 1034.16 1034.32 1034.48 1034.66 1034.82 1034.86 1034.98 1035.04 1035.06 1034.96 1034.96 1034.88 1034.74 1034.48 1034.26 1034.04 1033.72 1033.58 1033.32 1033.08 1033.02 1032.98 1032.76 1032.34 1031.92 1031.82 1031.96 1031.78 1031.58 1031.28 1031.18 1031.08 1030.72 1030.36 1030.28 1030.10 1029.84 1029.54 1029.12 1028.66 1028.36 1028.06 1027.74 1027.24 1026.64 1026.12 1025.58 1025.06 1024.60 1024.06 1023.56 1023.04 1022.52 1021.98 1021.46 1020.94 1020.40 1019.92 1019.46 1019.06
1032.18 1032.22 1032.28 1032.36 1032.48 1032.58 1032.58 1032.52 1032.44 1032.48 1032.56 1032.70 1032.90 1033.18 1033.64 1033.92 1034.22 1034.36 1034.52 1034.66 1034.72 1034.72 1034.74 1034.60 1034.68 1034.64 1034.16 1034.06 1033.92 1033.64 1033.28 1033.02 1032.80 1032.82 1032.88 1032.94 1032.46 1032.20 1031.80 1031.66 1031.70 1031.78 1031.90 1031.52 1030.78 1030.56 1030.64 1030.34 1030.00 1029.96 1029.66 1029.32 1029.16 1028.68 1028.26 1027.98 1027.54 1027.00 1026.50 1025.94 1025.42 1024.92 1024.42 1023.86 1023.38 1022.86 1022.34 1021.84 1021.36 1020.86 1020.38 1019.90 1019.44 1018.96
1031.74 1032.00 1032.10 1032.20 1032.28 1032.32 1032.34 1032.32 1032.24 1032.14 1032.20 1032.28 1032.40 1032.60 1032.86 1033.16 1033.44 1033.88 1034.20 1034.24 1034.44 1034.50 1034.36 1034.40 1034.58 1034.26 1033.84 1033.54 1033.34 1033.14 1032.90 1032.72 1032.52 1032.56 1032.66 1032.70 1032.44 1032.28 1032.34 1031.94 1031.40 1031.72 1031.86 1031.58 1031.34 1029.98 1030.20 1030.20 1029.96 1029.64 1029.56 1029.28 1028.98 1028.52 1028.14 1027.62 1027.18 1026.80 1026.30 1025.76 1025.26 1024.78 1024.26 1023.72 1023.16 1022.68 1022.20 1021.76 1021.28 1020.78 1020.28 1019.78 1019.28 1018.80
1031.38 1031.54 1031.76 1031.92 1032.08 1032.12 1032.08 1032.18 1032.20 1032.08 1032.00 1032.00 1031.98 1032.00 1032.18 1032.42 1032.64 1032.80 1033.06 1033.42 1034.06 1034.12 1034.04 1034.04 1033.80 1033.84 1033.42 1033.04 1032.88 1032.76 1032.58 1032.38 1032.32 1032.30 1032.42 1032.46 1032.40 1032.34 1032.34 1032.28 1032.10 1031.50 1031.90 1032.00 1031.58 1030.10 1029.74 1029.96 1029.84 1029.56 1029.36 1029.12 1028.94 1028.46 1027.88 1027.36 1027.00 1026.56 1026.10 1025.62 1025.12 1024.62 1024.10 1023.58 1023.10 1022.56 1022.08 1021.62 1021.14 1020.64 1020.12 1019.58 1019.06 1018.64
1031.08 1031.24 1031.46 1031.66 1031.78 1031.80 1031.88 1031.94 1032.02 1032.20 1032.22 1032.00 1031.76 1031.68 1031.68 1031.78 1031.90 1032.06 1032.18 1032.32 1032.48 1033.02 1033.38 1033.20 1033.22 1032.94 1032.72 1032.62 1032.32 1032.16 1032.08 1031.90 1032.04 1032.12 1032.22 1032.14 1032.18 1032.12 1032.26 1031.96 1031.96 1031.80 1032.18 1032.30 1031.82 1030.66 1029.60 1029.80 1029.54 1029.32 1028.94 1028.90 1028.70 1028.22 1027.62 1027.20 1026.80 1026.36 1025.96 1025.50 1024.98 1024.48 1023.98 1023.48 1022.96 1022.46 1021.94 1021.48 1020.98 1020.48 1019.98 1019.46 1019.00 1018.54
1030.70 1030.82 1031.00 1031.16 1031.22 1031.32 1031.58 1031.64 1031.80 1031.98 1032.16 1032.26 1032.20 1031.90 1031.60 1031.46 1031.34 1031.34 1031.38 1031.48 1031.64 1032.04 1032.26 1032.46 1032.24 1031.86 1031.88 1031.82 1031.76 1031.72 1031.66 1031.88 1031.98 1031.94 1031.94 1032.06 1032.26 1032.34 1032.20 1032.06 1032.20 1032.12 1032.36 1032.58 1032.22 1030.84 1029.50 1029.70 1029.58 1029.04 1028.48 1028.58 1028.38 1028.16 1027.52 1027.00 1026.60 1026.24 1025.84 1025.38 1024.88 1024.36 1023.90 1023.40 1022.90 1022.40 1021.90 1021.34 1020.86 1020.38 1019.90 1019.44 1018.94 1018.46
1030.28 1030.48 1030.70 1030.78 1030.64 1030.76 1031.08 1031.26 1031.46 1031.70 1031.84 1032.10 1032.18 1032.10 1031.86 1031.62 1031.52 1031.46 1031.30 1031.12 1031.02 1031.14 1031.28 1031.32 1031.20 1031.20 1031.20 1031.16 1031.26 1031.34 1031.36 1031.38 1031.30 1031.34 1031.86 1032.12 1032.30 1032.40 1032.44 1032.46 1032.44 1032.32 1032.12 1032.18 1032.24 1031.18 1029.16 1029.82 1029.68 1028.82 1028.54 1028.08 1027.98 1027.94 1027.24 1026.82 1026.44 1026.08 1025.70 1025.28 1024.76 1024.28 1023.78 1023.30 1022.80 1022.32 1021.80 1021.28 1020.82 1020.34 1019.82 1019.30 1018.80 1018.30
1030.06 1030.32 1030.52 1030.58 1030.50 1030.46 1030.62 1030.78 1030.92 1031.10 1031.54 1031.88 1031.96 1031.94 1031.78 1031.70 1031.58 1031.42 1031.12 1031.10 1031.02 1030.98 1030.92 1030.82 1030.72 1030.74 1030.80 1030.74 1030.82 1030.88 1030.94 1030.94 1031.08 1031.54 1031.96 1032.26 1032.48 1032.54 1032.38 1032.06 1032.16 1032.14 1031.92 1031.88 1032.10 1031.70 1030.18 1030.20 1030.22 1028.82 1028.34 1028.10 1027.54 1027.34 1027.10 1026.50 1026.28 1025.92 1025.58 1025.20 1024.74 1024.18 1023.72 1023.24 1022.72 1022.18 1021.72 1021.24 1020.74 1020.20 1019.68 1019.14 1018.60 1018.10
1029.84 1030.06 1030.18 1030.24 1030.20 1030.18 1030.20 1030.30 1030.52 1030.54 1030.86 1031.42 1031.60 1031.64 1031.58 1031.56 1031.58 1031.16 1031.02 1030.92 1030.68 1030.54 1030.40 1030.24 1030.18 1030.18 1030.18 1030.18 1030.12 1030.08 1030.10 1030.30 1030.92 1031.52 1031.72 1031.78 1032.18 1032.32 1032.26 1031.58 1031.68 1031.70 1031.90 1031.76 1031.60 1031.68 1031.02 1030.26 1030.24 1029.14 1028.20 1028.04 1027.32 1026.84 1026.64 1026.26 1026.08 1025.84 1025.48 1025.22 1024.70 1024.10 1023.62 1023.16 1022.62 1022.12 1021.64 1021.18 1020.64 1020.10 1019.54 1019.00 1018.48 1017.98
1029.56 1029.60 1029.74 1029.88 1029.90 1029.82 1029.70 1029.92 1030.08 1030.20 1030.32 1030.70 1030.98 1031.26 1031.18 1031.20 1031.24 1030.76 1030.70 1030.80 1030.52 1030.30 1030.08 1029.86 1029.72 1029.62 1029.54 1029.54 1029.48 1029.44 1029.48 1029.96 1030.26 1030.56 1030.78 1031.36 1032.06 1032.18 1032.46 1032.22 1031.44 1031.76 1031.84 1031.36 1031.18 1031.58 1030.62 1030.38 1030.18 1029.70 1028.32 1027.58 1026.72 1026.42 1026.22 1025.96 1025.90 1025.72 1025.42 1025.08 1024.64 1024.02 1023.52 1023.04 1022.54 1022.10 1021.64 1021.14 1020.60 1020.00 1019.44 1018.90 1018.38 1017.92
1029.18 1029.24 1029.36 1029.36 1029.34 1029.36 1029.36 1029.64 1029.74 1029.78 1029.88 1030.00 1030.14 1030.48 1030.88 1030.72 1030.48 1029.68 1030.06 1030.24 1030.32 1030.26 1030.10 1029.74 1029.54 1029.24 1029.08 1029.08 1029.18 1029.44 1029.60 1029.88 1030.12 1030.48 1030.82 1031.44 1031.74 1031.84 1032.04 1032.26 1032.34 1031.42 1030.82 1030.96 1030.88 1031.06 1030.42 1030.52 1030.08 1030.22 1029.44 1027.80 1025.78 1026.10 1025.70 1025.94 1025.88 1025.54 1025.36 1024.86 1024.42 1024.00 1023.48 1022.98 1022.58 1022.14 1021.64 1021.16 1020.58 1020.00 1019.38 1018.80 1018.34 1017.82
1028.52 1028.74 1028.94 1028.90 1028.76 1028.68 1028.82 1029.12 1029.28 1029.34 1029.36 1029.48 1029.56 1029.92 1030.16 1030.06 1029.34 1028.78 1029.48 1029.52 1029.66 1029.66 1029.48 1029.28 1029.22 1029.04 1028.96 1029.04 1029.30 1029.52 1029.66 1029.80 1029.98 1030.22 1030.58 1030.98 1031.34 1031.64 1031.74 1032.02 1032.14 1031.76 1031.02 1030.66 1030.54 1031.14 1030.50 1030.28 1030.24 1030.24 1030.60 1030.88 1028.16 1025.34 1025.74 1025.62 1025.68 1025.52 1025.28 1024.76 1024.30 1023.76 1023.38 1023.06 1022.56 1022.12 1021.66 1021.10 1020.56 1020.02 1019.40 1018.80 1018.24 1017.64
1028.10 1028.08 1028.22 1028.42 1028.58 1028.62 1028.56 1028.56 1028.52 1028.60 1028.72 1028.78 1028.92 1029.02 1028.98 1028.62 1028.24 1028.84 1028.92 1028.88 1028.86 1029.04 1029.02 1028.92 1028.84 1028.72 1028.72 1028.84 1029.08 1029.20 1029.32 1029.50 1029.72 1029.98 1030.16 1030.46 1030.78 1031.14 1031.46 1031.62 1031.78 1031.54 1030.92 1030.68 1030.68 1030.94 1030.70 1030.24 1030.38 1030.10 1030.16 1030.00 1029.04 1027.88 1025.14 1025.70 1025.28 1025.36 1025.14 1024.80 1024.32 1023.64 1023.42 1023.06 1022.64 1021.98 1021.56 1021.04 1020.52 1019.98 1019.42 1018.72 1018.04 1017.66
1027.76 1027.62 1027.76 1027.90 1028.22 1028.34 1028.26 1028.18 1028.12 1028.02 1027.94 1027.88 1028.00 1027.74 1027.64 1027.74 1027.98 1028.06 1028.20 1028.46 1028.58 1028.46 1028.48 1028.50 1028.46 1028.42 1028.54 1028.68 1028.86 1029.00 1029.12 1029.26 1029.46 1029.64 1029.96 1030.12 1030.28 1030.44 1030.62 1030.92 1031.16 1031.10 1030.62 1030.50 1030.50 1030.56 1030.80 1030.40 1030.32 1030.20 1029.80 1029.76 1028.42 1028.62 1027.12 1024.82 1024.72 1025.08 1024.78 1024.72 1024.44 1023.76 1023.36 1022.94 1022.54 1021.96 1021.52 1021.02 1020.34 1019.80 1019.18 1018.60 1018.08 1017.54
1026.92 1027.14 1027.34 1027.54 1027.74 1027.72 1027.64 1027.58 1027.48 1027.36 1027.24 1027.22 1027.00 1026.76 1026.78 1026.72 1026.86 1027.14 1027.30 1027.52 1027.86 1027.96 1027.92 1027.98 1027.94 1027.94 1028.12 1028.40 1028.46 1028.68 1028.78 1028.80 1029.06 1029.38 1029.60 1029.84 1029.96 1030.06 1030.22 1030.32 1030.36 1030.38 1030.26 1030.38 1030.36 1030.50 1030.64 1030.34 1029.96 1030.12 1029.66 1029.42 1029.04 1027.92 1027.50 1026.64 1024.32 1024.18 1024.62 1024.54 1024.14 1023.70 1023.08 1022.84 1022.44 1021.92 1021.44 1020.88 1020.26 1019.56 1018.98 1018.58 1018.12 1017.48
1026.68 1026.64 1026.74 1027.00 1027.12 1027.04 1026.92 1026.84 1026.78 1026.68 1026.60 1026.52 1026.38 1026.34 1026.10 1026.04 1026.10 1026.18 1026.26 1026.56 1026.74 1027.06 1027.24 1027.32 1027.32 1027.32 1027.58 1027.98 1028.02 1028.04 1028.12 1028.30 1028.70 1029.06 1029.30 1029.48 1029.62 1029.80 1029.94 1030.04 1030.12 1030.12 1030.10 1030.04 1030.04 1030.14 1030.18 1030.04 1029.76 1029.68 1029.62 1029.40 1029.10 1028.48 1027.54 1025.42 1025.38 1025.00 1024.84 1024.20 1024.42 1023.74 1023.14 1022.80 1022.36 1021.90 1021.36 1020.82 1020.12 1019.46 1018.88 1018.30 1017.90 1017.44
1026.14 1026.12 1026.02 1026.16 1026.20 1026.22 1026.20 1026.12 1026.08 1025.92 1025.80 1025.80 1025.88 1025.80 1025.74 1025.82 1025.80 1025.64 1025.64 1025.76 1026.32 1026.66 1026.58 1026.64 1026.78 1026.84 1026.94 1027.10 1027.14 1027.44 1027.84 1028.32 1028.76 1029.06 1029.18 1029.26 1029.42 1029.62 1029.80 1029.98 1030.04 1030.02 1029.92 1029.76 1029.80 1029.74 1029.66 1029.62 1029.40 1029.28 1029.26 1029.14 1028.90 1028.12 1028.04 1026.60 1025.54 1024.78 1024.92 1024.74 1024.14 1023.56 1022.98 1022.50 1022.16 1021.70 1021.26 1020.72 1020.02 1019.36 1018.90 1018.46 1017.90 1017.48
1025.60 1025.42 1025.36 1025.38 1025.40 1025.40 1025.44 1025.58 1025.58 1025.52 1025.46 1025.50 1025.48 1025.40 1025.42 1025.50 1025.42 1025.38 1025.40 1025.48 1025.96 1026.04 1026.06 1026.26 1026.36 1026.30 1026.60 1026.96 1027.18 1027.58 1028.00 1028.32 1028.48 1028.66 1028.90 1029.20 1029.40 1029.58 1029.78 1029.98 1029.90 1029.82 1029.62 1029.46 1029.42 1029.30 1029.18 1029.04 1028.94 1028.86 1028.76 1028.58 1028.44 1027.98 1027.46 1027.02 1025.48 1024.94 1025.12 1025.26 1024.52 1023.68 1022.94 1022.48 1022.06 1021.66 1021.24 1020.54 1019.82 1019.32 1018.84 1018.50 1018.00 1017.54
1025.62 1025.46 1025.48 1025.50 1025.40 1025.32 1025.16 1025.04 1024.92 1024.92 1024.88 1025.00 1024.98 1025.04 1025.10 1025.14 1025.14 1025.12 1025.20 1025.30 1025.52 1025.50 1025.52 1025.66 1025.76 1025.84 1026.36 1026.94 1027.36 1027.68 1027.90 1028.10 1028.28 1028.40 1028.66 1028.84 1029.00 1029.30 1029.52 1029.70 1029.54 1029.46 1029.08 1029.04 1028.96 1028.86 1028.72 1028.58 1028.50 1028.46 1028.40 1028.04 1027.82 1027.58 1027.08 1026.84 1026.14 1025.20 1024.82 1024.96 1024.64 1024.46 1022.80 1022.54 1021.94 1021.44 1021.04 1020.42 1019.84 1019.24 1018.72 1018.26 1017.76 1017.34
1026.04 1025.94 1025.76 1025.66 1025.60 1025.54 1025.38 1025.12 1024.86 1024.70 1024.74 1024.80 1024.86 1024.90 1024.94 1024.96 1024.98 1024.96 1024.98 1025.16 1025.40 1025.44 1025.46 1025.54 1025.80 1026.38 1026.84 1027.00 1027.24 1027.52 1027.74 1027.82 1028.04 1028.30 1028.54 1028.60 1028.78 1028.96 1029.28 1029.22 1028.64 1028.66 1028.70 1028.64 1028.58 1028.46 1028.42 1028.30 1028.20 1028.04 1027.94 1027.70 1027.46 1026.88 1026.82 1026.50 1026.10 1025.48 1025.10 1024.80 1024.26 1023.50 1022.84 1022.64 1022.06 1021.34 1020.78 1020.34 1019.76 1019.08 1018.48 1018.12 1017.56 1016.96
1026.06 1026.08 1026.00 1025.84 1025.70 1025.64 1025.44 1025.16 1024.92 1024.80 1024.78 1024.72 1024.68 1024.78 1024.86 1024.90 1024.92 1024.98 1025.16 1025.22 1025.06 1025.12 1025.56 1025.66 1025.82 1026.06 1026.78 1026.92 1027.14 1027.44 1027.62 1027.64 1027.84 1028.10 1028.32 1028.46 1028.58 1028.92 1029.12 1028.92 1028.62 1028.68 1028.56 1028.50 1028.36 1028.10 1028.04 1027.98 1027.82 1027.66 1027.44 1027.24 1027.08 1026.84 1026.62 1025.96 1025.26 1025.54 1025.26 1024.60 1024.12 1023.32 1022.48 1022.10 1021.90 1021.32 1020.74 1020.32 1019.76 1019.08 1018.06 1017.56 1017.36 1016.92
1025.78 1025.88 1025.90 1025.82 1025.74 1025.64 1025.46 1025.24 1024.96 1024.78 1024.68 1024.56 1024.54 1024.56 1024.60 1024.68 1024.76 1024.86 1024.96 1024.92 1024.86 1025.00 1025.20 1025.26 1025.60 1025.88 1026.30 1026.54 1026.90 1027.14 1027.14 1027.30 1027.58 1027.80 1027.92 1028.30 1028.46 1028.74 1028.66 1028.58 1028.42 1028.52 1028.62 1028.56 1028.48 1028.26 1028.02 1027.80 1027.52 1027.20 1026.94 1026.66 1026.48 1026.42 1026.22 1025.92 1024.94 1024.98 1024.84 1024.50 1023.90 1023.32 1022.34 1022.02 1021.66 1021.28 1020.94 1020.50 1019.82 1018.92 1018.02 1017.04 1016.80 1016.74
1025.28 1025.32 1025.48 1025.36 1025.34 1025.26 1025.12 1025.00 1024.82 1024.66 1024.54 1024.46 1024.48 1024.48 1024.56 1024.66 1024.76 1024.86 1024.94 1024.98 1025.02 1025.04 1025.16 1025.44 1025.62 1025.82 1026.06 1026.16 1026.34 1026.60 1026.66 1026.86 1027.16 1027.66 1027.68 1027.84 1028.14 1028.18 1028.18 1028.24 1028.22 1028.32 1028.34 1028.34 1028.20 1027.96 1027.92 1027.76 1027.54 1027.10 1026.48 1026.10 1025.78 1025.24 1025.16 1024.72 1025.04 1024.68 1024.74 1024.24 1023.50 1023.08 1022.42 1021.96 1021.62 1021.18 1020.68 1020.06 1019.64 1019.10 1018.16 1017.24 1016.48 1016.32
1024.50 1024.64 1024.86 1024.90 1024.88 1024.84 1024.80 1024.58 1024.46 1024.40 1024.36 1024.28 1024.24 1024.26 1024.40 1024.48 1024.62 1024.82 1024.74 1024.60 1024.84 1024.96 1025.20 1025.36 1025.50 1025.64 1025.82 1025.82 1025.90 1026.08 1026.32 1026.60 1026.96 1027.30 1027.62 1027.72 1027.90 1027.98 1028.08 1028.06 1028.04 1028.02 1028.10 1028.08 1027.92 1027.76 1027.70 1027.56 1027.40 1027.16 1026.60 1025.98 1025.84 1024.90 1024.32 1023.82 1024.12 1024.38 1024.18 1023.80 1023.24 1022.72 1022.34 1021.90 1021.44 1021.04 1020.52 1019.92 1019.36 1018.98 1018.36 1017.48 1016.52 1015.90
1024.32 1024.26 1024.44 1024.60 1024.58 1024.58 1024.60 1024.60 1024.62 1024.64 1024.60 1024.54 1024.50 1024.40 1024.34 1024.26 1024.26 1024.48 1024.48 1024.52 1024.66 1024.78 1024.88 1025.02 1025.14 1025.26 1025.50 1025.72 1025.90 1026.08 1026.26 1026.46 1026.68 1027.00 1027.24 1027.28 1027.42 1027.62 1027.72 1027.68 1027.66 1027.66 1027.78 1027.70 1027.64 1027.52 1027.44 1027.32 1027.12 1027.04 1026.74 1026.40 1025.90 1025.26 1024.10 1024.08 1024.04 1023.78 1023.58 1023.60 1023.12 1022.64 1022.22 1021.66 1021.06 1020.54 1020.20 1019.88 1019.14 1018.78 1018.32 1017.70 1016.86 1016.12
1025.30 1025.38 1025.46 1025.58 1025.74 1025.84 1025.80 1025.74 1025.74 1025.64 1025.54 1025.42 1025.18 1024.96 1024.76 1024.58 1024.40 1024.26 1024.26 1024.44 1024.50 1024.52 1024.56 1024.64 1024.72 1024.98 1025.28 1025.48 1025.76 1025.88 1026.16 1026.36 1026.46 1026.68 1026.80 1026.92 1027.10 1027.24 1027.26 1027.20 1027.16 1027.26 1027.30 1027.36 1027.36 1027.20 1027.00 1026.94 1026.84 1026.76 1026.70 1026.44 1026.04 1025.40 1024.44 1023.10 1023.16 1023.12 1023.32 1023.32 1023.40 1022.50 1021.88 1021.42 1020.78 1020.30 1019.70 1019.40 1019.16 1018.46 1018.14 1017.66 1016.92 1016.22
1026.32 1026.46 1026.38 1026.52 1026.52 1026.46 1026.58 1026.48 1026.46 1026.42 1026.38 1026.20 1026.10 1025.98 1025.78 1025.50 1025.20 1024.96 1024.78 1024.74 1024.76 1024.76 1024.72 1024.74 1024.76 1024.82 1025.00 1025.18 1025.38 1025.50 1025.70 1026.04 1026.34 1026.34 1026.50 1026.64 1026.72 1026.76 1026.80 1026.90 1026.90 1026.86 1026.98 1026.94 1026.88 1026.74 1026.62 1026.56 1026.44 1026.44 1026.46 1026.42 1026.12 1025.60 1025.32 1024.76 1023.66 1022.12 1022.10 1022.94 1023.08 1022.44 1021.58 1021.20 1020.62 1019.98 1019.52 1019.10 1018.60 1018.18 1017.74 1017.26 1016.58 1015.88
1026.98 1026.98 1026.98 1027.10 1027.14 1027.02 1027.12 1026.98 1026.98 1026.82 1026.82 1026.62 1026.56 1026.38 1026.18 1026.00 1025.78 1025.54 1025.32 1025.14 1025.00 1024.90 1024.92 1024.90 1024.90 1024.90 1025.04 1025.16 1025.32 1025.44 1025.56 1025.64 1025.74 1025.88 1026.06 1026.22 1026.34 1026.42 1026.50 1026.56 1026.56 1026.54 1026.60 1026.48 1026.42 1026.28 1026.26 1026.12 1026.14 1026.20 1026.24 1026.04 1025.74 1025.42 1025.26 1024.98 1024.10 1023.10 1022.30 1021.76 1022.14 1022.00 1021.54 1021.02 1020.52 1020.02 1019.36 1018.98 1018.64 1018.12 1017.34 1016.60 1016.04 1015.28
1027.68 1027.70 1027.66 1027.56 1027.64 1027.58 1027.62 1027.56 1027.42 1027.38 1027.24 1027.08 1026.96 1026.76 1026.58 1026.42 1026.22 1026.04 1025.74 1025.34 1025.06 1024.96 1024.92 1024.90 1024.96 1025.00 1024.94 1025.04 1025.18 1025.32 1025.40 1025.52 1025.70 1025.72 1025.74 1025.84 1025.94 1026.04 1026.16 1026.22 1026.22 1026.10 1026.06 1025.94 1026.02 1026.08 1025.98 1025.80 1025.80 1025.74 1025.72 1025.70 1025.62 1025.60 1025.40 1024.80 1023.90 1022.76 1022.08 1021.40 1021.38 1021.48 1021.24 1020.96 1020.60 1020.16 1019.54 1018.92 1018.58 1018.06 1017.36 1016.64 1015.84 1015.12
1028.28 1028.32 1028.22 1028.18 1028.26 1028.28 1028.22 1028.20 1028.10 1028.04 1027.92 1027.76 1027.64 1027.44 1027.24 1027.00 1026.78 1026.36 1026.06 1025.88 1025.72 1025.48 1025.28 1025.16 1025.10 1025.08 1025.06 1025.02 1025.12 1025.22 1025.22 1025.14 1025.26 1025.42 1025.52 1025.60 1025.74 1025.74 1025.76 1025.76 1025.82 1025.82 1025.90 1025.74 1025.76 1025.78 1025.76 1025.76 1025.78 1025.82 1025.82 1025.80 1025.68 1025.52 1024.90 1024.46 1023.92 1022.98 1022.12 1021.54 1021.12 1020.82 1020.74 1020.56 1020.24 1019.94 1019.48 1018.96 1018.46 1017.96 1017.26 1016.38 1015.90 1015.52
1028.60 1028.62 1028.62 1028.62 1028.62 1028.56 1028.54 1028.50 1028.42 1028.32 1028.20 1028.06 1027.94 1027.72 1027.56 1027.30 1027.04 1026.80 1026.60 1026.34 1026.10 1025.90 1025.66 1025.48 1025.36 1025.34 1025.28 1025.28 1025.30 1025.36 1025.40 1025.36 1025.34 1025.32 1025.38 1025.50 1025.60 1025.74 1025.80 1025.82 1025.78 1025.76 1025.76 1025.70 1025.74 1025.80 1025.80 1025.74 1025.72 1025.70 1025.66 1025.62 1025.42 1025.22 1024.74 1024.20 1023.78 1023.24 1022.44 1021.84 1021.36 1020.86 1020.26 1019.98 1020.00 1019.60 1019.10 1018.62 1018.36 1018.02 1017.54 1017.00 1016.50 1015.84
1028.86 1028.82 1028.82 1028.82 1028.80 1028.70 1028.66 1028.60 1028.52 1028.40 1028.30 1028.22 1028.06 1027.94 1027.74 1027.48 1027.20 1026.96 1026.78 1026.58 1026.36 1026.16 1025.96 1025.82 1025.66 1025.56 1025.48 1025.50 1025.56 1025.60 1025.60 1025.52 1025.44 1025.40 1025.38 1025.44 1025.56 1025.66 1025.72 1025.70 1025.66 1025.60 1025.58 1025.60 1025.66 1025.70 1025.70 1025.66 1025.58 1025.52 1025.38 1025.18 1025.02 1024.82 1024.46 1024.02 1023.56 1023.14 1022.74 1022.24 1021.78 1021.36 1020.66 1019.92 1019.56 1019.24 1018.90 1018.60 1018.18 1017.70 1017.20 1016.84 1016.50 1016.08
1029.00 1029.00 1028.96 1028.92 1028.88 1028.84 1028.76 1028.68 1028.58 1028.44 1028.36 1028.24 1028.12 1028.00 1027.82 1027.62 1027.36 1027.12 1026.92 1026.74 1026.52 1026.34 1026.20 1026.06 1025.90 1025.72 1025.60 1025.54 1025.54 1025.48 1025.44 1025.42 1025.38 1025.42 1025.46 1025.54 1025.60 1025.66 1025.68 1025.62 1025.54 1025.46 1025.50 1025.58 1025.62 1025.52 1025.56 1025.50 1025.36 1025.24 1025.08 1024.82 1024.72 1024.48 1024.18 1023.98 1023.60 1023.16 1022.76 1022.52 1022.08 1021.60 1021.12 1020.50 1020.04 1019.68 1019.38 1018.70 1017.88 1017.48 1017.08 1016.64 1016.20 1015.74
Wind_Speed
5 5 5 6 6 5 4 4 5 5 5 5 5 5 5 6 4 2 1 3 5 3 4 2 1 2 3 4 4 4 4 6 8 4 5 5 5 12 18 20 20 20 20 20 20 20 20 21 23 24 24 25 26 27 28 28 29 30 30 31 30 30 31 31 31 31 31 31 31 30 28 29 30 30
4 4 4 4 6 4 4 5 4 5 5 6 5 5 4 5 6 4 5 5 4 3 2 3 2 1 2 3 5 3 3 7 7 4 5 5 6 14 17 18 19 19 20 19 19 19 20 21 23 23 24 25 25 26 27 28 30 32 32 31 31 30 30 31 32 32 31 31 31 30 29 30 31 30
3 4 4 3 4 3 5 5 4 4 5 5 5 5 5 4 4 5 3 2 4 4 5 1 1 0 2 3 3 3 3 5 7 5 5 5 11 15 11 16 18 18 19 19 19 19 20 22 22 23 23 24 25 26 27 29 30 32 33 32 31 31 30 30 31 31 29 29 29 31 32 31 30 30
3 3 4 3 4 4 4 4 4 4 4 4 5 4 5 4 4 4 5 5 8 1 3 2 1 1 1 3 3 3 2 3 8 4 5 7 11 7 6 12 16 18 18 18 18 19 21 22 22 23 23 24 25 27 28 29 29 30 31 31 30 30 29 29 29 29 28 29 30 30 31 30 30 30
4 3 3 3 3 3 5 5 5 5 4 3 4 4 5 5 4 6 5 6 8 4 2 2 2 1 1 3 0 3 3 4 4 5 5 6 6 6 6 7 12 16 17 17 18 19 20 21 21 22 22 24 26 27 28 28 28 28 28 28 29 29 30 30 30 29 29 29 29 29 29 29 29 29
5 4 4 3 3 3 5 5 5 5 4 4 4 4 5 5 6 4 6 6 4 7 1 2 2 0 0 1 1 2 5 6 4 5 5 5 5 6 6 6 7 14 16 16 18 19 20 20 20 21 23 25 25 26 27 27 27 27 27 28 28 28 29 29 29 28 27 28 28 28 28 28 29 29
6 5 5 5 4 3 4 4 4 4 4 4 5 5 4 5 5 5 5 4 6 6 5 3 2 2 1 2 4 4 4 6 5 6 5 5 5 5 6 6 6 11 15 16 17 18 19 19 20 21 24 24 25 25 25 26 26 26 27 27 27 28 28 29 29 29 29 29 29 29 30 30 29 29
7 7 6 6 6 4 5 4 4 4 4 5 5 5 4 5 5 5 4 5 5 3 4 3 4 3 2 3 3 5 5 6 5 5 6 5 5 5 5 5 6 8 14 15 16 18 18 18 19 21 23 24 24 24 24 25 26 26 27 26 27 28 28 29 30 30 30 30 30 31 31 29 29 30
8 8 8 7 6 6 6 4 5 5 6 5 5 5 5 5 4 4 5 5 3 4 6 5 2 2 2 4 4 4 5 6 5 4 5 4 5 4 4 5 6 10 13 13 15 16 17 18 18 21 22 23 23 23 24 25 26 26 26 26 27 28 29 31 30 29 29 30 30 31 31 31 30 29
7 8 7 7 7 7 8 8 6 6 7 5 6 5 5 5 4 5 4 3 4 4 5 4 5 1 3 3 3 3 3 7 9 6 3 3 3 3 5 4 4 4 3 4 6 9 11 14 17 19 21 22 22 22 23 24 25 26 26 27 27 28 29 29 29 30 30 30 30 31 31 30 29 29
6 7 6 6 7 8 8 7 8 8 6 7 7 7 6 5 5 6 5 4 4 4 5 4 5 6 4 4 5 3 4 5 5 7 9 7 1 2 5 8 5 3 5 5 9 12 14 15 12 16 20 20 21 22 22 23 24 25 26 26 27 28 29 28 29 29 29 29 30 30 30 31 30 29
7 6 6 6 7 8 8 8 7 8 8 6 7 6 5 6 6 6 5 4 5 5 5 6 6 4 5 4 4 4 3 3 3 2 3 9 11 10 4 3 8 9 6 4 4 8 10 8 10 14 15 17 20 21 20 21 22 24 25 26 28 28 29 29 28 28 28 29 30 30 30 30 29 29
6 6 6 5 6 7 8 10 9 9 8 7 8 6 6 7 7 5 4 5 4 4 4 6 5 5 6 5 5 5 3 3 6 2 1 6 7 8 9 4 2 4 7 8 7 6 8 9 7 7 7 8 15 15 19 16 21 23 26 27 28 28 29 29 28 28 28 28 28 29 30 29 29 29
7 7 6 5 8 10 11 11 13 13 14 13 10 7 8 7 7 7 6 6 6 5 6 7 5 6 8 5 4 5 4 4 4 3 3 7 8 7 8 6 1 2 3 9 12 8 5 7 8 6 8 8 10 10 10 10 15 23 27 27 28 29 28 29 29 29 28 28 28 29 29 29 29 29
8 7 6 5 7 8 9 9 14 15 15 16 16 14 13 11 10 8 8 7 6 7 7 5 4 6 9 7 4 5 5 4 3 3 4 6 7 8 8 10 4 3 7 9 11 13 4 4 8 7 7 8 9 10 10 20 23 25 26 28 28 28 28 29 30 29 29 29 29 29 29 29 29 29
7 7 7 6 5 7 7 6 7 11 16 17 17 17 16 16 17 15 11 9 6 6 7 7 9 7 9 7 4 5 4 4 3 3 4 6 7 8 9 9 9 5 7 9 11 15 5 4 6 7 6 7 8 11 19 24 23 25 26 27 27 27 28 29 29 29 29 29 29 29 29 29 29 28
8 7 6 6 6 6 10 8 7 7 8 13 17 17 18 18 18 18 19 16 11 7 8 9 9 10 7 7 6 4 4 4 7 6 7 9 8 9 10 10 8 6 5 8 10 13 10 4 6 8 7 7 7 12 17 23 24 25 26 25 26 27 29 29 29 29 29 28 29 28 28 28 28 28
8 8 8 7 8 7 6 7 8 8 8 7 7 8 8 8 13 19 21 21 21 14 11 10 11 9 8 8 5 4 3 3 5 7 8 6 6 6 8 7 6 7 4 5 6 11 5 2 8 10 9 6 8 10 17 24 23 24 24 24 25 28 29 29 28 28 28 28 28 28 28 28 28 28
9 7 7 8 9 7 7 7 9 8 8 6 8 8 9 8 7 6 8 10 9 10 10 11 11 9 8 8 6 5 5 6 7 6 4 4 5 7 7 7 5 6 4 5 3 7 10 6 9 10 9 10 9 8 16 21 22 21 22 23 26 28 28 28 28 28 27 27 27 27 28 28 28 27
7 6 7 8 9 9 8 10 15 13 7 6 8 10 10 9 7 8 8 11 10 9 8 8 9 7 6 9 7 7 7 7 2 3 3 1 1 4 7 9 1 3 3 3 4 5 8 4 8 12 10 10 10 8 10 16 19 19 20 24 26 27 27 27 27 27 27 27 28 28 28 27 28 27
7 7 8 9 9 8 9 10 14 15 13 7 10 10 10 9 7 11 8 13 19 20 21 22 22 20 19 19 19 19 20 10 7 6 2 3 0 4 8 10 3 4 1 3 6 4 9 4 4 12 10 10 12 10 8 8 12 16 21 23 24 26 26 26 27 27 27 27 27 28 28 28 27 29
7 8 12 10 11 10 10 11 14 14 12 9 10 9 11 10 10 12 8 7 10 18 22 24 24 23 22 21 21 23 20 11 5 1 7 3 2 6 4 8 6 4 2 6 3 2 5 4 4 9 11 12 5 6 5 6 8 16 16 20 23 24 25 26 26 26 26 27 27 27 28 27 26 17
7 8 9 15 14 12 12 13 13 15 13 9 10 10 8 11 12 14 8 9 8 9 9 11 12 14 17 16 9 4 8 7 3 4 4 3 5 7 7 7 5 8 2 3 2 2 3 4 5 4 10 11 9 4 4 3 9 10 9 11 13 20 24 25 25 25 26 26 26 27 27 27 24 14
8 8 8 10 17 20 18 16 16 16 18 12 9 6 9 11 16 10 6 9 9 10 11 11 10 11 9 6 4 4 4 4 4 4 4 5 5 7 7 6 6 7 3 2 1 2 5 3 4 2 2 6 10 9 7 10 6 9 9 11 9 16 20 20 19 24 25 25 26 26 26 25 24 14
10 9 8 7 11 16 18 18 19 20 20 19 11 10 12 14 12 3 6 9 14 10 9 9 9 9 8 6 5 5 5 5 4 4 5 6 6 7 7 7 7 9 8 7 8 4 5 2 8 6 5 5 8 12 14 10 9 8 8 9 11 12 11 11 11 13 17 23 24 25 24 25 25 19
9 10 8 7 7 12 16 18 19 22 22 24 14 14 21 22 22 14 8 7 7 8 8 8 8 8 7 7 7 7 6 5 5 4 4 5 6 6 7 7 8 7 7 4 7 3 4 7 4 6 6 5 10 7 14 16 9 7 7 8 9 12 12 12 11 11 11 11 11 15 20 25 23 24
11 8 7 7 10 15 17 18 20 21 23 20 16 24 25 25 25 19 11 9 8 8 9 8 9 9 9 8 8 8 7 6 5 5 5 5 6 6 5 7 7 8 6 5 6 5 5 7 5 6 8 7 10 12 12 11 15 7 9 8 11 13 13 10 11 11 10 11 13 24 22 20 21 24
9 9 8 7 12 17 19 20 21 21 21 16 20 22 25 24 22 14 11 10 10 9 9 10 10 10 8 7 8 8 7 6 5 5 5 5 6 5 4 6 6 7 7 8 6 6 7 9 8 8 7 7 9 10 13 13 11 10 11 11 10 13 12 11 11 10 10 12 12 12 11 11 12 13
9 11 15 16 17 18 20 22 23 22 24 27 25 26 25 21 11 11 10 9 7 8 10 10 9 9 9 10 9 5 4 3 3 3 3 3 3 2 3 3 4 6 6 6 7 8 7 7 8 7 6 6 8 9 9 14 14 14 12 13 13 11 14 12 10 10 11 11 12 13 12 13 13 13
20 21 21 23 23 20 18 14 11 10 11 18 23 25 24 13 10 9 9 7 7 9 9 9 10 9 6 6 5 3 4 5 6 5 5 5 4 4 4 3 5 6 7 7 7 7 7 7 7 7 7 7 7 10 10 11 15 12 9 9 12 12 9 8 10 11 11 12 13 14 13 12 13 12
11 13 12 10 13 14 19 19 19 17 16 14 13 11 10 9 9 8 7 7 8 9 8 7 8 7 4 3 4 4 5 5 5 4 5 4 5 4 4 4 5 4 6 5 5 6 6 6 7 7 8 7 7 8 10 9 12 13 11 9 10 11 11 11 11 11 11 12 13 14 13 12 12 12
8 8 9 12 8 7 8 9 7 7 6 7 7 7 7 7 7 9 12 9 5 6 5 5 1 2 3 4 5 4 5 5 5 4 5 5 4 4 2 2 5 3 3 3 4 5 5 6 6 5 6 7 9 9 8 9 11 12 12 10 11 11 10 8 10 11 12 14 14 13 13 12 12 11
7 5 7 7 7 5 7 7 7 7 6 7 7 7 6 6 6 6 5 8 9 8 5 7 6 6 4 5 4 4 5 6 6 4 5 3 6 3 3 6 6 4 5 5 5 6 4 4 5 6 7 7 8 9 10 12 9 7 9 10 9 11 11 9 9 11 14 14 12 13 15 12 10 11
6 6 6 6 6 6 5 6 7 7 6 6 6 5 6 5 6 6 7 8 8 6 7 7 6 6 5 6 6 6 6 5 5 5 6 4 4 4 5 6 6 4 4 5 5 6 5 5 6 7 6 7 7 9 10 11 14 9 7 8 9 10 11 9 9 11 13 12 13 14 13 13 10 9
8 6 6 6 5 6 6 7 7 7 7 6 6 6 5 5 6 5 6 7 6 6 6 5 5 5 5 7 6 7 7 6 5 6 4 4 5 6 5 6 5 5 5 5 5 4 3 5 5 7 6 5 6 5 12 13 9 9 5 8 8 9 10 9 10 11 13 13 12 13 13 14 13 9
6 5 6 6 6 6 7 7 7 7 7 7 6 6 5 6 5 6 8 7 6 6 5 6 6 6 7 7 7 6 5 5 5 5 5 5 5 5 5 6 5 5 4 5 6 4 3 4 4 5 7 9 8 10 5 3 7 5 5 8 8 8 8 10 11 11 11 11 11 11 12 13 14 12
6 5 4 5 5 5 6 5 5 5 5 6 6 6 6 7 5 5 7 6 5 5 7 6 7 6 6 6 5 5 5 6 6 5 6 5 5 5 5 5 6 5 4 5 4 5 3 4 3 3 5 7 8 10 12 3 10 12 7 4 8 9 10 10 11 10 9 11 12 11 11 12 14 14
5 6 6 6 7 6 7 7 7 7 7 7 7 6 6 6 6 6 2 3 5 5 6 6 6 5 5 5 6 6 5 5 5 5 6 5 6 5 6 6 5 4 5 4 4 5 4 5 4 4 2 5 8 9 13 11 9 2 3 5 7 12 11 10 10 10 11 9 10 11 11 12 13 13
4 5 5 4 5 5 5 5 5 5 5 5 5 6 6 6 6 7 6 5 4 4 4 5 5 5 5 5 6 6 6 6 6 6 6 5 6 6 5 6 6 4 4 5 4 4 4 5 4 4 4 4 6 7 7 11 14 16 14 17 10 10 10 8 10 11 10 10 10 10 10 10 13 19
4 4 3 4 3 4 4 4 4 4 4 5 5 5 6 6 6 6 6 6 6 5 4 5 5 4 4 4 5 4 5 6 7 5 6 6 6 6 7 5 6 5 4 5 4 4 4 5 4 4 5 6 6 6 7 9 12 13 13 13 10 9 10 9 10 10 11 10 10 11 11 11 10 8
3 3 3 3 3 3 3 4 4 4 5 6 6 7 6 6 7 7 7 7 6 6 5 4 4 4 5 4 5 6 8 6 5 5 5 5 6 5 7 7 5 5 5 5 4 4 6 5 4 8 6 5 5 5 6 7 9 11 11 11 11 15 17 15 11 10 10 12 10 8 9 10 10 10
2 2 3 3 3 3 4 4 4 4 5 5 5 5 6 6 6 10 9 10 8 7 6 5 4 4 4 4 4 5 6 7 6 6 6 5 5 6 7 6 5 4 4 6 5 5 4 2 4 4 4 3 3 3 6 7 10 11 11 11 10 13 16 17 18 16 12 10 9 9 9 9 8 8
2 2 2 3 2 3 3 3 4 4 4 5 5 5 5 5 5 6 5 6 6 6 6 5 5 4 4 4 4 4 4 5 4 5 4 4 5 5 5 5 5 5 5 5 4 3 4 3 3 4 3 1 3 3 6 8 8 10 11 11 11 11 12 14 15 17 17 18 14 10 9 8 8 9
1 1 3 3 3 4 5 5 5 4 4 4 5 4 4 5 5 6 5 6 6 5 6 5 5 5 4 4 4 3 4 5 4 4 5 5 4 4 4 5 4 4 4 4 3 4 4 4 4 4 3 3 3 3 6 7 8 9 9 10 9 10 12 11 10 11 11 11 13 14 17 16 14 15
2 2 3 4 4 4 4 4 4 4 4 4 3 4 4 4 5 6 6 6 5 6 5 5 5 5 5 4 3 5 5 5 4 4 3 3 3 4 4 4 5 4 4 3 3 5 3 4 5 3 3 5 3 4 6 6 8 9 9 9 11 10 9 9 10 11 10 11 13 18 18 19 19 19
Wind_Direction
122 123 135 131 135 141 132 122 124 128 119 121 124 125 145 152 141 218 260 268 210 285 186 185 279 106 67 33 16 21 23 351 352 347 339 324 316 314 325 327 327 328 330 336 338 338 337 336 335 334 333 332 331 329 328 327 324 322 323 322 322 319 318 316 315 316 317 316 315 314 314 313 312 313
106 114 113 125 127 141 127 130 132 125 126 124 128 124 125 138 165 179 176 258 205 242 277 193 225 345 30 24 4 13 355 338 344 330 320 313 300 313 324 321 320 323 328 333 336 335 336 334 334 333 333 332 331 330 328 326 324 322 325 323 320 318 317 317 317 316 315 314 314 313 313 312 312 312
113 131 130 125 127 140 125 121 115 112 114 118 122 125 126 143 148 159 145 191 283 170 237 298 58 41 345 13 347 342 335 324 327 320 305 299 303 315 310 309 312 319 325 330 333 332 332 334 334 334 334 333 331 329 327 325 323 323 323 321 319 320 319 318 317 315 315 315 315 315 314 314 313 311
120 138 141 156 151 150 126 119 120 116 104 119 127 140 145 146 155 147 181 210 246 272 201 260 262 109 28 332 324 319 306 300 311 296 292 292 304 302 289 296 303 312 319 329 331 329 331 333 334 335 334 332 330 328 326 324 323 322 321 322 322 324 323 320 318 318 317 316 315 313 312 313 310 307
139 152 154 166 165 160 136 136 126 119 121 117 129 142 147 156 158 164 187 214 256 289 208 205 243 314 45 332 221 297 287 295 287 284 280 284 285 288 282 285 293 303 315 324 327 328 330 331 333 335 334 331 329 329 327 327 325 323 323 324 324 324 324 322 320 319 317 315 313 312 311 309 309 308
149 152 161 178 175 185 143 143 141 140 140 154 151 173 167 176 177 189 170 227 228 255 305 325 306 315 54 271 253 268 307 300 291 283 278 272 269 274 281 283 282 295 314 322 326 327 327 330 334 334 333 330 330 330 328 327 326 324 324 324 325 325 323 321 318 317 317 316 314 312 310 309 308 307
148 157 171 185 180 173 143 154 154 147 163 169 176 188 182 181 193 191 196 179 230 253 268 227 237 239 230 263 280 293 275 282 279 281 278 277 272 267 273 275 277 295 311 320 326 325 326 329 334 333 329 329 330 330 329 327 326 325 325 325 325 324 321 319 319 320 318 316 314 311 308 308 306 306
163 170 171 191 184 170 158 170 167 175 171 178 188 191 197 187 197 195 193 216 205 226 246 274 189 241 267 274 283 275 279 272 275 266 273 262 263 263 266 270 280 284 309 322 323 321 324 330 333 330 328 328 328 328 328 327 326 326 326 326 323 321 320 317 319 318 317 315 313 310 309 308 307 306
171 175 188 185 179 173 171 180 185 183 189 191 187 200 201 197 198 191 197 211 216 212 248 272 267 198 238 253 258 274 291 294 277 256 263 265 261 271 254 261 269 291 312 318 319 318 322 329 332 329 326 326 326 326 326 327 327 327 326 323 322 320 319 320 322 320 318 315 314 313 312 311 311 312
181 183 189 185 181 180 186 194 190 188 196 188 198 203 206 200 191 200 210 195 209 230 245 247 287 248 251 290 263 235 278 307 315 305 249 235 259 291 304 274 279 295 302 320 309 312 317 324 330 325 323 324 324 324 326 327 326 326 325 323 322 321 321 320 321 321 321 319 317 317 320 321 317 314
187 191 189 187 190 195 198 190 191 190 195 194 207 204 200 194 189 206 210 202 211 227 250 262 246 273 267 265 285 286 275 268 271 291 321 316 204 280 305 315 308 296 302 302 313 314 318 324 327 321 322 321 319 321 326 326 324 324 322 321 322 322 321 322 323 322 321 320 319 318 317 319 321 322
194 197 197 196 202 205 204 197 195 184 196 191 208 206 186 189 193 208 205 210 214 230 245 251 265 259 282 279 268 273 274 285 275 241 337 313 322 323 310 289 321 316 313 309 308 308 312 318 316 315 313 313 315 320 324 323 324 320 320 321 322 321 323 323 323 322 322 322 321 320 319 319 318 317
201 206 206 209 210 219 217 211 201 199 192 181 205 207 183 194 196 206 206 208 215 236 240 261 258 270 268 266 284 292 267 276 280 277 316 295 299 299 307 311 300 288 322 318 310 316 320 318 320 312 310 312 318 316 320 321 319 318 321 321 321 323 322 322 322 323 323 322 321 320 321 321 321 321
206 212 210 214 218 221 223 218 216 213 211 209 203 192 185 192 195 203 203 209 217 222 233 247 247 264 266 253 246 261 255 257 270 297 319 307 304 304 297 295 229 354 343 325 318 317 318 309 308 312 311 313 315 308 317 311 314 319 320 320 321 322 323 324 324 324 323 322 322 321 320 318 316 315
212 215 213 214 224 227 227 226 227 228 226 225 221 211 200 194 189 192 203 220 202 211 232 231 225 243 262 253 228 243 254 249 240 275 300 291 300 304 317 315 317 119 8 330 319 309 338 310 307 312 308 310 310 310 304 311 318 319 318 320 321 322 323 324 325 325 324 324 322 321 319 317 315 314
212 214 211 216 214 225 223 220 234 238 238 234 231 227 220 215 212 202 191 200 208 209 220 231 231 224 243 253 223 240 253 259 258 263 285 286 288 287 292 288 290 325 19 333 316 300 324 313 293 297 303 306 305 302 307 314 315 318 319 319 320 322 323 325 325 325 324 323 322 321 320 318 317 316
217 209 209 218 223 226 222 225 225 230 245 247 241 235 233 231 226 223 220 213 202 191 211 225 234 221 231 244 237 226 243 268 272 286 282 282 271 273 277 279 290 310 6 322 300 292 306 318 307 302 303 304 306 304 309 310 313 318 318 317 319 321 324 324 324 324 324 323 322 322 321 321 319 318
219 212 204 213 230 220 210 219 221 225 230 234 253 252 247 239 236 234 232 233 230 211 213 216 233 231 211 232 219 229 231 219 266 275 270 253 255 260 266 289 297 300 331 282 298 292 302 14 319 305 304 306 302 301 300 307 311 315 316 316 318 321 322 323 324 324 324 323 323 323 323 322 320 319
224 215 210 219 231 224 211 213 213 217 221 221 234 241 246 246 241 240 242 235 233 224 218 222 233 231 219 229 225 222 206 223 247 249 237 244 266 280 291 288 259 277 248 239 271 270 301 350 314 298 305 308 299 292 299 303 307 311 315 317 319 321 322 324 324 325 325 325 324 323 321 320 319 318
225 212 214 221 231 232 227 222 221 221 204 214 226 234 242 246 247 245 237 242 240 235 232 232 231 224 212 223 227 218 221 241 190 109 71 93 38 321 302 290 224 229 256 223 226 274 289 343 305 300 306 302 294 296 289 296 303 308 315 319 319 319 322 324 324 326 327 326 324 322 320 319 319 318
224 219 219 223 228 234 235 226 224 226 214 209 220 229 238 241 245 249 243 246 246 244 245 245 245 243 242 244 244 245 240 229 155 140 191 244 88 319 297 292 252 248 153 250 222 250 283 308 312 304 303 302 295 292 280 284 299 311 317 319 317 318 322 324 325 326 327 326 324 322 320 320 319 319
230 226 221 220 223 233 241 227 227 226 221 217 218 220 232 241 244 250 235 235 242 247 249 249 248 247 245 244 244 247 249 231 219 112 272 248 134 259 232 270 286 279 254 253 184 208 249 304 314 303 304 297 255 252 248 284 309 316 315 316 317 316 319 324 324 324 325 325 324 323 321 321 321 321
225 237 228 228 228 231 240 236 232 230 223 226 223 217 220 238 243 245 215 224 227 232 237 246 245 248 245 245 240 157 180 200 153 147 188 146 176 249 250 251 298 313 270 249 144 325 269 335 306 342 328 318 293 210 263 325 316 311 315 312 312 313 319 322 322 322 323 323 323 323 322 322 323 317
241 231 235 239 239 240 241 240 237 235 232 231 233 212 218 234 245 242 210 219 215 224 222 231 233 240 239 226 169 185 174 164 163 175 189 187 193 222 241 232 214 234 254 240 100 320 280 256 282 352 296 294 307 314 309 307 312 307 312 309 307 315 319 320 319 318 319 321 322 323 322 321 321 318
251 249 237 239 236 243 248 249 248 246 243 240 234 226 228 229 245 228 210 227 219 221 226 229 229 232 226 208 197 210 205 187 172 186 193 193 197 206 219 232 229 241 247 253 283 285 272 332 306 305 271 249 266 297 300 302 303 301 307 307 311 313 313 315 314 312 315 318 319 321 319 319 321 322
249 249 245 243 225 233 241 245 248 250 250 247 242 238 240 244 246 245 232 214 214 225 226 228 228 224 214 211 213 214 214 207 186 177 193 208 208 209 206 209 226 245 255 249 266 280 303 288 269 292 284 287 283 271 298 303 299 294 310 308 309 309 312 312 311 307 312 310 309 316 317 319 319 318
255 256 245 231 222 230 234 237 240 244 246 248 245 247 250 252 251 248 237 222 217 222 227 228 229 224 217 215 220 214 216 214 194 194 198 202 209 216 220 235 232 241 259 258 247 251 245 268 269 272 285 283 285 298 287 289 305 322 305 314 316 312 310 310 311 311 308 310 311 315 315 315 316 317
256 258 251 234 229 233 235 237 239 242 244 242 244 248 252 255 256 250 242 229 225 220 222 223 226 227 217 214 223 218 209 205 191 192 187 198 202 210 226 235 244 251 263 262 257 242 248 259 267 258 261 279 285 291 299 290 280 296 308 313 309 305 304 309 308 305 308 312 307 312 314 316 318 318
247 247 252 250 245 240 241 243 248 252 252 252 254 256 258 259 256 252 247 239 213 220 226 227 229 231 219 213 222 203 176 128 134 160 198 181 194 207 253 259 258 261 255 258 254 252 242 243 259 261 254 254 267 275 278 283 298 302 312 315 312 311 310 309 305 310 314 307 311 317 318 318 316 317
269 268 269 269 268 267 261 254 248 249 249 252 254 256 258 255 252 253 252 238 218 228 231 224 227 231 217 210 198 130 143 169 191 180 171 151 216 202 226 260 263 244 245 242 241 243 240 242 252 257 263 255 253 273 274 287 292 290 302 299 292 297 280 296 307 311 312 314 317 317 315 312 310 311
275 277 279 283 282 281 277 269 261 253 253 251 251 249 246 244 244 248 248 241 231 236 238 234 235 227 187 110 122 179 189 200 199 179 179 160 206 181 212 223 256 246 242 224 227 234 244 247 248 257 267 270 264 253 274 275 281 292 297 297 301 295 299 309 308 309 311 314 315 311 310 310 309 306
271 279 289 291 298 297 291 281 282 270 261 250 247 245 240 238 240 243 247 250 246 249 249 259 313 79 135 182 193 180 197 212 199 182 184 194 208 187 179 240 249 227 264 258 253 231 235 248 256 258 257 269 277 282 274 267 270 284 289 291 288 285 290 296 304 306 314 318 314 311 309 310 309 311
270 278 282 286 290 290 286 291 280 273 267 259 250 245 241 240 237 235 218 234 241 237 219 234 215 218 176 208 179 193 205 213 179 187 184 200 160 206 194 233 254 268 278 288 293 293 269 263 252 255 260 259 259 272 284 289 268 251 279 287 290 291 297 303 303 308 317 316 312 312 308 307 308 309
252 259 266 267 271 280 283 284 284 280 273 272 263 252 245 240 238 232 235 238 246 236 227 233 220 213 201 214 200 205 219 224 199 190 190 196 181 186 211 233 244 229 237 256 260 269 286 287 294 284 272 258 246 244 254 260 275 277 272 281 284 289 294 303 304 309 312 312 313 311 309 307 309 309
252 253 251 259 251 256 261 263 269 271 271 266 265 255 238 234 237 237 237 239 240 243 238 234 229 221 207 222 206 212 216 213 198 168 211 161 186 209 219 231 243 231 233 251 260 254 252 279 293 299 289 284 291 249 232 238 246 270 273 274 278 285 293 300 306 309 312 312 313 307 305 304 304 309
253 236 242 253 256 250 252 254 255 258 262 268 270 271 261 252 231 235 243 243 232 244 241 234 231 224 223 225 223 217 214 186 191 190 198 189 193 220 219 232 236 241 229 244 257 260 254 271 287 298 311 317 322 311 337 223 200 233 272 285 287 291 293 299 301 301 306 306 310 309 306 308 307 311
273 267 250 251 264 270 279 295 306 302 299 294 290 291 287 284 269 233 247 260 245 235 234 233 240 231 229 227 227 223 186 180 207 198 203 207 202 199 223 240 232 237 229 238 234 256 241 253 249 266 296 309 307 303 291 278 274 272 237 246 298 296 302 302 300 301 306 308 307 308 306 305 304 304
12 14 18 20 21 19 13 12 7 7 3 355 346 335 329 317 313 304 294 242 245 246 243 240 241 227 223 213 216 223 209 213 204 198 207 191 194 219 222 238 237 229 234 235 229 243 236 238 252 234 241 280 297 302 308 315 318 220 185 326 305 298 300 298 300 303 305 308 306 307 307 301 301 301
25 32 14 27 7 20 15 8 6 357 358 349 350 343 338 338 336 331 331 316 303 282 269 256 251 234 227 218 214 212 211 200 202 211 201 208 209 220 228 229 245 235 224 250 225 240 228 238 235 230 216 241 264 283 294 304 297 299 298 298 293 284 291 300 299 302 304 310 308 301 290 284 286 294
21 30 25 26 7 5 13 359 357 345 345 337 335 330 328 329 329 325 322 320 310 292 276 265 267 257 237 226 221 225 224 215 212 208 205 208 211 213 214 224 233 242 242 244 242 237 241 247 239 227 228 239 256 278 292 287 286 286 288 298 299 300 303 307 307 311 306 308 309 307 304 309 307 308
24 17 16 8 14 1 3 353 345 344 334 336 336 331 330 323 325 321 312 309 308 304 288 272 252 247 245 223 214 203 210 221 214 215 209 210 207 205 222 227 237 224 236 257 236 255 248 255 249 279 286 283 298 316 303 291 288 294 300 302 310 312 311 312 309 307 304 308 306 300 301 308 313 319
52 15 355 4 9 350 349 338 340 338 330 332 336 332 329 325 315 320 322 322 320 314 304 295 277 261 256 237 224 217 222 223 214 215 211 208 214 221 222 222 232 229 225 249 237 246 259 292 291 287 277 285 296 292 281 284 288 296 298 306 309 313 315 315 317 315 308 304 309 310 313 310 315 309
26 16 348 335 347 335 333 327 322 323 314 321 321 320 320 314 313 315 316 315 313 316 309 306 299 284 276 275 259 244 245 253 234 231 219 214 209 215 222 228 233 235 234 253 252 248 278 283 286 286 283 258 244 229 270 281 284 289 299 308 313 317 312 316 320 321 321 317 313 311 315 322 324 320
357 322 306 306 313 308 311 311 310 308 317 314 310 316 311 311 308 307 304 307 310 308 315 313 312 305 295 289 285 266 249 249 244 235 232 223 214 216 224 238 244 245 245 258 283 282 276 279 275 264 280 263 244 250 268 284 288 292 294 301 308 313 312 318 322 323 320 313 315 326 332 333 327 321
288 272 275 290 286 283 286 287 292 297 302 301 310 306 305 308 298 302 300 297 300 301 305 306 304 299 297 284 264 261 254 251 248 241 240 233 225 225 229 236 243 250 253 260 283 288 287 288 283 273 241 252 237 239 267 275 286 297 299 305 305 308 307 317 326 331 328 320 316 330 337 336 335 335